�N����,����,����,����,����,�C��,���x,�~����,�S�V����,�ő�u�ԕ���,,,,,
,,,,,,,,,����,����,����,�N��,,
yyyy/mm/dd,hh:mm:ss,(16),16����,m/s,��,%,mm,KW/�u,(16),16����,m/s,Time,,
2016/7/1,1:00:00,14,�k��,0.5,16.1,99.7,0,0,14,�k��,3.4,25,,
2016/7/1,2:00:00,8,��,1.6,15.7,99.8,0,0,8,��,2.1,53,,
2016/7/1,3:00:00,6,�쓌,0.9,15.6,99.9,0,0,7,��쓌,2.2,6,,
2016/7/1,4:00:00,16,�É�,0.1,15.6,100,0,0,7,��쓌,1.3,1,,
2016/7/1,5:00:00,16,�É�,0.2,16.2,100,0,0.02,7,��쓌,1.5,19,,
2016/7/1,6:00:00,9,��쐼,0.5,16.7,100,0,0.07,10,�쐼,0.9,54,,
2016/7/1,7:00:00,8,��,0.8,17.8,100,0,0.18,9,��쐼,1.9,58,,
2016/7/1,8:00:00,7,��쓌,2.1,17.5,94.8,0,0.32,6,�쓌,3.5,32,,
2016/7/1,9:00:00,6,�쓌,1.5,20.1,84.6,0,0.52,6,�쓌,3.2,27,,
2016/7/1,10:00:00,6,�쓌,1.5,21.3,83.8,0,0.73,6,�쓌,4,43,,
2016/7/1,11:00:00,7,��쓌,1.6,21.3,82.6,0,0.82,9,��쐼,5.1,36,,
2016/7/1,12:00:00,6,�쓌,2.6,19.7,82.2,0,0.89,6,�쓌,5.1,7,,
2016/7/1,13:00:00,6,�쓌,2.3,19.9,84.1,0,0.72,6,�쓌,4.2,3,,
2016/7/1,14:00:00,7,��쓌,1.8,19.2,90.2,0,0.61,6,�쓌,4.9,2,,
2016/7/1,15:00:00,6,�쓌,1.8,18.3,93.2,0,0.41,6,�쓌,3.8,6,,
2016/7/1,16:00:00,7,��쓌,1.5,18.4,92.9,0,0.36,6,�쓌,3.3,37,,
2016/7/1,17:00:00,4,��,2.8,17.5,94.5,0,0.23,5,���쓌,4.1,43,,
2016/7/1,18:00:00,3,���k��,2.6,16.5,98,0,0.08,3,���k��,5,21,,
2016/7/1,19:00:00,3,���k��,2.7,15.8,99.2,0,0.01,3,���k��,5.1,30,,
2016/7/1,20:00:00,3,���k��,2.5,15.3,99.6,0,0,3,���k��,4.9,23,,
2016/7/1,21:00:00,16,�k,0.7,15.5,99.9,0,0,3,���k��,3.1,1,,
2016/7/1,22:00:00,2,�k��,2.5,15.4,100,0,0,2,�k��,4.8,40,,
2016/7/1,23:00:00,1,�k�k��,1.9,15.6,100,0,0,2,�k��,4.7,7,,
2016/7/1,0:00:00,2,�k��,2.1,15.6,100,0,0,3,���k��,3.1,53,,
2016/7/2,1:00:00,16,�É�,0,15.6,100,0,0,1,�k�k��,2.8,8,,
2016/7/2,2:00:00,10,�쐼,1,15.5,100,0,0,11,���쐼,1.5,57,,
2016/7/2,3:00:00,6,�쓌,0.6,15.5,100,0,0,7,��쓌,1.3,57,,
2016/7/2,4:00:00,8,��,0.4,15.2,100,0,0,8,��,1.4,20,,
2016/7/2,5:00:00,7,��쓌,0.5,15.4,100,0,0.02,8,��,1.4,53,,
2016/7/2,6:00:00,13,���k��,0.5,15.6,100,0,0.08,11,���쐼,2,39,,
2016/7/2,7:00:00,9,��쐼,0.7,15.8,100,0,0.14,10,�쐼,2.5,18,,
2016/7/2,8:00:00,6,�쓌,2,16.1,100,0,0.23,7,��쓌,3.1,51,,
2016/7/2,9:00:00,6,�쓌,1.8,16.3,96.1,0,0.37,5,���쓌,3,52,,
2016/7/2,10:00:00,6,�쓌,2.4,16.5,94.2,0,0.34,4,��,4.1,36,,
2016/7/2,11:00:00,5,���쓌,2.2,16.3,96.5,0,0.25,4,��,4.1,26,,
2016/7/2,12:00:00,5,���쓌,1.9,16.4,95,0,0.21,5,���쓌,3.2,57,,
2016/7/2,13:00:00,4,��,2.9,15,99.2,0,0.11,4,��,4.5,28,,
2016/7/2,14:00:00,4,��,2.4,15.2,100,0.5,0.1,3,���k��,3.5,58,,
2016/7/2,15:00:00,3,���k��,3.1,15.4,100,0,0.1,3,���k��,4.9,59,,
2016/7/2,16:00:00,3,���k��,4.2,15.8,100,0,0.04,3,���k��,6.1,56,,
2016/7/2,17:00:00,3,���k��,2.5,16.5,100,6,0.02,3,���k��,5.7,9,,
2016/7/2,18:00:00,6,�쓌,2.8,16.9,100,1.5,0.01,7,��쓌,5,58,,
2016/7/2,19:00:00,8,��,3.9,17.5,100,3.5,0.01,9,��쐼,8.7,56,,
2016/7/2,20:00:00,8,��,4.2,17.2,100,4.5,0,8,��,9,0,,
2016/7/2,21:00:00,8,��,4.3,16.9,100,1.5,0,9,��쐼,9.5,34,,
2016/7/2,22:00:00,8,��,5.2,18.1,100,1,0,8,��,10.6,49,,
2016/7/2,23:00:00,8,��,6.5,18.7,100,0,0,8,��,17.1,49,,
2016/7/2,0:00:00,9,��쐼,6.3,18.3,100,0.5,0,8,��,15.9,8,,
2016/7/3,1:00:00,8,��,4.9,17.3,99.5,0,0,9,��쐼,11,44,,
2016/7/3,2:00:00,8,��,2.4,17.5,97.1,0,0,9,��쐼,10.3,0,,
2016/7/3,3:00:00,8,��,3.5,16.2,98.3,0,0,8,��,7.4,38,,
2016/7/3,4:00:00,9,��쐼,2.9,19.4,91.6,0,0,9,��쐼,7.2,7,,
2016/7/3,5:00:00,10,�쐼,2.5,20,89.5,0,0.1,9,��쐼,4.8,5,,
2016/7/3,6:00:00,10,�쐼,2.9,20.3,83.6,0,0.15,11,���쐼,6.1,14,,
2016/7/3,7:00:00,16,�k,0.6,20.8,85.6,0,0.2,11,���쐼,5.7,4,,
2016/7/3,8:00:00,13,���k��,2.9,21.3,78,0,0.27,12,��,5.3,8,,
2016/7/3,9:00:00,12,��,2,23.8,70.9,0,0.53,12,��,5.5,6,,
2016/7/3,10:00:00,6,�쓌,2.2,23.5,76.7,0,0.69,5,���쓌,3.7,39,,
2016/7/3,11:00:00,3,���k��,0.7,25.4,72.5,0,0.66,6,�쓌,2.9,7,,
2016/7/3,12:00:00,5,���쓌,1.1,27.3,70.1,0,0.73,5,���쓌,4.2,23,,
2016/7/3,13:00:00,6,�쓌,2.5,27,67.3,0,0.89,6,�쓌,4.2,40,,
2016/7/3,14:00:00,8,��,2.7,27.2,60.6,0,0.64,7,��쓌,5.1,21,,
2016/7/3,15:00:00,16,�k,1.7,27.5,52.2,0,0.48,1,�k�k��,4.9,56,,
2016/7/3,16:00:00,7,��쓌,1.4,28,47.9,0,0.61,15,�k�k��,3.9,1,,
2016/7/3,17:00:00,16,�k,3,26.4,58.4,0,0.49,11,���쐼,8.4,41,,
2016/7/3,18:00:00,1,�k�k��,0.6,23.4,70.2,0,0.27,15,�k�k��,4.3,2,,
2016/7/3,19:00:00,1,�k�k��,1.9,20.8,78.4,0,0.09,2,�k��,2.9,55,,
2016/7/3,20:00:00,1,�k�k��,2.6,19.3,82,0,0,2,�k��,4.3,39,,
2016/7/3,21:00:00,13,���k��,1.1,16.6,94.6,0,0,3,���k��,3.6,9,,
2016/7/3,22:00:00,11,���쐼,1.8,14.9,97.3,0,0,6,�쓌,3.2,19,,
2016/7/3,23:00:00,13,���k��,0.4,14.3,98.9,0,0,11,���쐼,2.2,38,,
2016/7/3,0:00:00,15,�k�k��,0.8,13.4,99.6,0,0,11,���쐼,2.4,31,,
2016/7/4,1:00:00,13,���k��,1,12.6,99.1,0,0,13,���k��,2.6,46,,
2016/7/4,2:00:00,13,���k��,1.4,13,99,0,0,13,���k��,3.2,18,,
2016/7/4,3:00:00,14,�k��,1,12.2,99.1,0,0,13,���k��,3.1,7,,
2016/7/4,4:00:00,15,�k�k��,0.5,11.5,99.4,0,0,12,��,2.2,7,,
2016/7/4,5:00:00,13,���k��,1,12.4,99.7,0,0.03,12,��,2.8,45,,
2016/7/4,6:00:00,4,��,2,16.6,89.3,0,0.1,12,��,3.5,4,,
2016/7/4,7:00:00,6,�쓌,2,18.3,80.6,0,0.38,7,��쓌,3.1,49,,
2016/7/4,8:00:00,4,��,6,17.5,78.6,0,0.63,4,��,8,54,,
2016/7/4,9:00:00,5,���쓌,4.9,17.2,79.2,0,0.76,5,���쓌,7.3,34,,
2016/7/4,10:00:00,4,��,4.4,19.2,72.8,0,0.82,4,��,7.1,41,,
2016/7/4,11:00:00,3,���k��,3.8,18.8,63.4,0,0.78,1,�k�k��,7.4,55,,
2016/7/4,12:00:00,1,�k�k��,4.8,18.7,59.5,0,0.45,2,�k��,11.6,55,,
2016/7/4,13:00:00,16,�k,4.7,17.2,61.2,0,0.56,1,�k�k��,12.5,8,,
2016/7/4,14:00:00,15,�k�k��,2.3,16,67,0,0.34,1,�k�k��,10.3,34,,
2016/7/4,15:00:00,14,�k��,3,15.3,72.7,0,0.16,14,�k��,6.8,6,,
2016/7/4,16:00:00,14,�k��,3.4,15.8,73.1,0,0.2,13,���k��,7.4,32,,
2016/7/4,17:00:00,14,�k��,4.1,16,73.7,0,0.15,13,���k��,9.4,38,,
2016/7/4,18:00:00,15,�k�k��,2.8,15.2,74.6,0,0.07,15,�k�k��,8.7,6,,
2016/7/4,19:00:00,16,�k,3.1,15.1,74.7,0,0.01,1,�k�k��,7.3,0,,
2016/7/4,20:00:00,16,�k,2.7,15.2,72.9,0,0,16,�k,6.7,52,,
2016/7/4,21:00:00,16,�k,1.5,14.7,76.3,0,0,15,�k�k��,5.3,1,,
2016/7/4,22:00:00,14,�k��,2,14.5,76.9,0,0,15,�k�k��,4.7,35,,
2016/7/4,23:00:00,16,�k,1.5,14,78.5,0,0,15,�k�k��,4.7,6,,
2016/7/4,0:00:00,15,�k�k��,1.1,13.2,82.5,0,0,1,�k�k��,3.9,7,,
2016/7/5,1:00:00,3,���k��,1.6,12.5,85.7,0,0,1,�k�k��,2.7,31,,
2016/7/5,2:00:00,2,�k��,1.8,11.1,90.3,0,0,2,�k��,2.7,6,,
2016/7/5,3:00:00,2,�k��,1.9,10.5,92.1,0,0,3,���k��,2.6,30,,
2016/7/5,4:00:00,5,���쓌,0.6,8.5,95.9,0,0,2,�k��,1.7,0,,
2016/7/5,5:00:00,16,�É�,0,10.6,97.8,0,0.04,12,��,1.9,6,,
2016/7/5,6:00:00,3,���k��,1.6,12.1,91.3,0,0.09,4,��,3.4,59,,
2016/7/5,7:00:00,4,��,2.8,12.4,89,0,0.14,3,���k��,4,55,,
2016/7/5,8:00:00,4,��,3,12.6,85.7,0,0.24,4,��,5,9,,
2016/7/5,9:00:00,4,��,2.7,13.1,85,0,0.35,4,��,5.5,55,,
2016/7/5,10:00:00,4,��,3.1,13.5,80.5,0,0.45,4,��,5.5,8,,
2016/7/5,11:00:00,6,�쓌,2.6,13.4,77.8,0,0.66,6,�쓌,4.7,59,,
2016/7/5,12:00:00,7,��쓌,2.5,13.5,76.1,0,0.7,5,���쓌,4.9,43,,
2016/7/5,13:00:00,7,��쓌,2.6,13.3,78.5,0,0.86,6,�쓌,5.3,36,,
2016/7/5,14:00:00,7,��쓌,2.8,13.8,75.9,0,0.75,7,��쓌,4.7,57,,
2016/7/5,15:00:00,6,�쓌,2.8,14,76.9,0,0.77,7,��쓌,5,27,,
2016/7/5,16:00:00,7,��쓌,2.5,13.5,78.8,0,0.54,6,�쓌,4.9,58,,
2016/7/5,17:00:00,7,��쓌,1.8,13,83.9,0,0.33,7,��쓌,4,6,,
2016/7/5,18:00:00,8,��,1.7,12.1,87.3,0,0.14,6,�쓌,3.6,13,,
2016/7/5,19:00:00,9,��쐼,0.6,11.1,93.1,0,0.04,7,��쓌,2.6,10,,
2016/7/5,20:00:00,8,��,0.6,10.1,97.1,0,0,8,��,1.2,15,,
2016/7/5,21:00:00,16,�É�,0,8.6,98.3,0,0,12,��,1,25,,
2016/7/5,22:00:00,16,�É�,0.1,8.3,98.8,0,0,13,���k��,1.1,20,,
2016/7/5,23:00:00,13,���k��,0.5,7.8,99.4,0,0,12,��,1.1,24,,
2016/7/5,0:00:00,12,��,0.7,7.8,99.6,0,0,12,��,1.7,32,,
2016/7/6,1:00:00,12,��,1,8.1,99.8,0,0,12,��,1.8,24,,
2016/7/6,2:00:00,12,��,1.1,8.9,99.9,0,0,12,��,2.1,23,,
2016/7/6,3:00:00,13,���k��,1.6,9.6,99.6,0,0,13,���k��,2.1,59,,
2016/7/6,4:00:00,12,��,1.3,9.7,99.3,0,0,13,���k��,1.8,0,,
2016/7/6,5:00:00,13,���k��,0.9,10.4,99,0,0.01,12,��,1.6,22,,
2016/7/6,6:00:00,13,���k��,0.8,11.2,97,0,0.04,15,�k�k��,1.7,3,,
2016/7/6,7:00:00,14,�k��,0.8,11.9,96.3,0,0.07,14,�k��,2,5,,
2016/7/6,8:00:00,4,��,0.9,12.7,95.1,0,0.12,4,��,1.9,49,,
2016/7/6,9:00:00,3,���k��,1.7,13.3,96,0,0.15,4,��,2.6,46,,
2016/7/6,10:00:00,5,���쓌,1.4,13.8,95,0,0.18,4,��,2.5,40,,
2016/7/6,11:00:00,5,���쓌,1.4,14,94.5,0,0.2,6,�쓌,2.9,19,,
2016/7/6,12:00:00,5,���쓌,2,14.1,93.6,0,0.21,4,��,3.2,48,,
2016/7/6,13:00:00,4,��,2.1,14.4,93,0,0.25,5,���쓌,3.7,48,,
2016/7/6,14:00:00,4,��,1.4,14.4,91.3,0,0.19,4,��,3.8,1,,
2016/7/6,15:00:00,4,��,1.9,14.4,91.2,0,0.17,5,���쓌,3.1,34,,
2016/7/6,16:00:00,5,���쓌,2.3,14,93.6,0,0.13,5,���쓌,3,54,,
2016/7/6,17:00:00,4,��,2.1,14.1,93.8,0,0.13,5,���쓌,3,42,,
2016/7/6,18:00:00,3,���k��,2.1,13.7,95.3,0,0.07,2,�k��,3.1,47,,
2016/7/6,19:00:00,4,��,1,13.6,96.5,0,0.02,4,��,3.5,3,,
2016/7/6,20:00:00,16,�É�,0,13.3,97.5,0,0,3,���k��,2,11,,
2016/7/6,21:00:00,16,�É�,0,12.9,98.9,0,0,15,�k�k��,0.8,33,,
2016/7/6,22:00:00,16,�É�,0,12.8,99,0,0,2,�k��,1,31,,
2016/7/6,23:00:00,12,��,0.9,12.5,99.6,0,0,13,���k��,1.4,45,,
2016/7/6,0:00:00,12,��,0.7,10.1,99.7,0,0,13,���k��,1.1,9,,
2016/7/7,1:00:00,16,�k,0.4,11.8,100,0,0,2,�k��,3,25,,
2016/7/7,2:00:00,14,�k��,0.7,11.8,100,0,0,14,�k��,1.4,8,,
2016/7/7,3:00:00,16,�k,1.6,11.8,100,0,0,13,���k��,3.3,28,,
2016/7/7,4:00:00,13,���k��,0.8,11.6,98,0,0,14,�k��,3.3,44,,
2016/7/7,5:00:00,1,�k�k��,0.6,12.1,96.1,0,0.03,14,�k��,4.6,33,,
2016/7/7,6:00:00,14,�k��,0.9,13.3,93.8,0,0.12,1,�k�k��,1.6,27,,
2016/7/7,7:00:00,1,�k�k��,1.3,15.1,85.8,0,0.3,1,�k�k��,2.8,58,,
2016/7/7,8:00:00,16,�k,1,16.4,78.7,0,0.61,4,��,2.9,20,,
2016/7/7,9:00:00,5,���쓌,4.7,15.7,72.9,0,0.71,5,���쓌,6.1,52,,
2016/7/7,10:00:00,5,���쓌,4.3,16.3,77.9,0,0.95,5,���쓌,6.9,16,,
2016/7/7,11:00:00,5,���쓌,4.1,16.5,75.3,0,1.01,4,��,6.9,15,,
2016/7/7,12:00:00,6,�쓌,3.3,17.3,72,0,1.01,5,���쓌,5.3,50,,
2016/7/7,13:00:00,7,��쓌,3,16.5,73.9,0,0.98,,,,,,
2016/7/7,14:00:00,7,��쓌,3.8,16.2,75.2,0,0.78,8,��,6.6,41,,
2016/7/7,15:00:00,7,��쓌,3.4,16.2,77.3,0,0.7,7,��쓌,6.2,14,,
2016/7/7,16:00:00,8,��,3.7,15.7,77.9,0,0.52,8,��,6.3,28,,
2016/7/7,17:00:00,7,��쓌,2.3,15.5,81.4,0,0.35,7,��쓌,5.1,0,,
2016/7/7,18:00:00,7,��쓌,1.6,14.6,87.9,0,0.18,7,��쓌,4.2,13,,
2016/7/7,19:00:00,7,��쓌,0.3,13.6,93.2,0,0.06,9,��쐼,2.5,15,,
2016/7/7,20:00:00,16,�É�,0,11.4,98.6,0,0,1,�k�k��,1.2,42,,
2016/7/7,21:00:00,12,��,0.7,9.5,99.7,0,0,14,�k��,1.3,0,,
2016/7/7,22:00:00,16,�É�,0.2,9,99.8,0,0,14,�k��,1.4,0,,
2016/7/7,23:00:00,14,�k��,0.5,11.2,100,0,0,1,�k�k��,1.6,0,,
2016/7/7,0:00:00,15,�k�k��,0.9,13,100,0,0,1,�k�k��,2.9,15,,
2016/7/8,1:00:00,14,�k��,1.6,13.5,96.5,0,0,15,�k�k��,3.2,39,,
2016/7/8,2:00:00,14,�k��,1.9,13.3,96.5,0,0,13,���k��,3.9,18,,
2016/7/8,3:00:00,14,�k��,2,12.7,97,0,0,14,�k��,3.2,12,,
2016/7/8,4:00:00,12,��,2.3,12.1,98.6,0,0,13,���k��,3.6,21,,
2016/7/8,5:00:00,13,���k��,2.3,12.1,99.4,0,0.01,12,��,3.2,14,,
2016/7/8,6:00:00,15,�k�k��,1,13.1,98.8,0,0.08,12,��,2.9,2,,
2016/7/8,7:00:00,14,�k��,1.4,13.6,94.4,0,0.16,16,�k,2.5,56,,
2016/7/8,8:00:00,13,���k��,1.4,14.3,89.1,0,0.26,13,���k��,2.8,32,,
2016/7/8,9:00:00,5,���쓌,0.9,15.7,84.2,0,0.38,12,��,2.8,1,,
2016/7/8,10:00:00,5,���쓌,3.2,17.9,77.6,0,0.87,4,��,4.8,57,,
2016/7/8,11:00:00,5,���쓌,3.7,16.7,81.1,0,0.91,5,���쓌,5.6,44,,
2016/7/8,12:00:00,4,��,3.5,18.2,78.2,0,0.98,4,��,5.3,56,,
2016/7/8,13:00:00,5,���쓌,3.3,18.2,80.4,0,1.02,5,���쓌,5.6,32,,
2016/7/8,14:00:00,5,���쓌,3.1,18.1,81.5,0,0.93,4,��,6.1,12,,
2016/7/8,15:00:00,4,��,3,18.6,80.4,0,0.79,3,���k��,4.9,5,,
2016/7/8,16:00:00,5,���쓌,3,18,82.9,0,0.62,5,���쓌,4.9,30,,
2016/7/8,17:00:00,4,��,2.9,17.9,84.5,0,0.44,4,��,4.6,10,,
2016/7/8,18:00:00,3,���k��,3.3,16,88.6,0,0.24,3,���k��,5.9,59,,
2016/7/8,19:00:00,3,���k��,3,14.6,96.4,0,0.06,3,���k��,6.3,39,,
2016/7/8,20:00:00,3,���k��,2,14.9,96.3,0,0,3,���k��,6.1,9,,
2016/7/8,21:00:00,3,���k��,2.5,14.6,96.1,0,0,4,��,4.1,30,,
2016/7/8,22:00:00,4,��,2.3,14.7,96,0,0,3,���k��,4,3,,
2016/7/8,23:00:00,5,���쓌,2,14,98.6,0,0,5,���쓌,4.3,17,,
2016/7/8,0:00:00,5,���쓌,1.1,13.8,99.4,0,0,5,���쓌,3.1,20,,
2016/7/9,1:00:00,3,���k��,0.4,13.6,99.7,0,0,5,���쓌,2.3,12,,
2016/7/9,2:00:00,16,�É�,0.2,13.6,100,0,0,2,�k��,2.5,37,,
2016/7/9,3:00:00,5,���쓌,0.4,13.6,100,0,0,3,���k��,1.7,39,,
2016/7/9,4:00:00,4,��,0.3,13.5,100,0,0,3,���k��,2.1,23,,
2016/7/9,5:00:00,16,�É�,0.2,13.6,100,0,0.02,1,�k�k��,2,25,,
2016/7/9,6:00:00,3,���k��,1.9,13.6,100,0,0.06,3,���k��,3,57,,
2016/7/9,7:00:00,2,�k��,1.1,14.4,100,0,0.12,3,���k��,2.5,59,,
2016/7/9,8:00:00,5,���쓌,2,14.6,100,0,0.19,2,�k��,3.6,34,,
2016/7/9,9:00:00,6,�쓌,1.5,14.7,100,0,0.24,5,���쓌,3.3,35,,
2016/7/9,10:00:00,5,���쓌,2.4,15.4,93.7,0,0.37,5,���쓌,3.8,58,,
2016/7/9,11:00:00,4,��,1.5,15.2,92.2,0,0.43,7,��쓌,4,11,,
2016/7/9,12:00:00,6,�쓌,2.5,15.2,90.1,0,0.5,5,���쓌,4.7,23,,
2016/7/9,13:00:00,4,��,2.7,16.4,89.9,0,0.5,5,���쓌,5.4,27,,
2016/7/9,14:00:00,5,���쓌,2.6,15.8,90.8,0,0.48,4,��,4.9,41,,
2016/7/9,15:00:00,4,��,2.7,16,92.4,0,0.4,4,��,4.8,40,,
2016/7/9,16:00:00,4,��,1.3,15.7,92.4,0,0.29,5,���쓌,4.2,23,,
2016/7/9,17:00:00,3,���k��,2.5,15.2,92.9,0,0.23,3,���k��,3.8,54,,
2016/7/9,18:00:00,4,��,1.8,15.4,95.8,0,0.13,3,���k��,3.4,1,,
2016/7/9,19:00:00,4,��,2.5,14.3,99.1,0,0.02,4,��,3.7,56,,
2016/7/9,20:00:00,3,���k��,2.1,14.1,99.9,0,0,4,��,3.8,48,,
2016/7/9,21:00:00,3,���k��,1.6,14,100,0,0,3,���k��,2.9,50,,
2016/7/9,22:00:00,1,�k�k��,0.9,14.2,100,0,0,3,���k��,2.4,0,,
2016/7/9,23:00:00,6,�쓌,0.6,14.1,100,0,0,6,�쓌,1.5,54,,
2016/7/9,0:00:00,1,�k�k��,0.3,14.2,100,0,0,2,�k��,1.9,26,,
2016/7/10,1:00:00,14,�k��,0.4,14.1,100,0,0,3,���k��,2.1,25,,
2016/7/10,2:00:00,3,���k��,0.8,14.4,100,0.5,0,4,��,1.6,57,,
2016/7/10,3:00:00,13,���k��,0.7,14.5,100,0,0,13,���k��,2.2,36,,
2016/7/10,4:00:00,16,�k,0.9,14.6,100,0.5,0,12,��,2.5,22,,
2016/7/10,5:00:00,13,���k��,1.1,14.9,100,0.5,0.01,13,���k��,2.1,32,,
2016/7/10,6:00:00,1,�k�k��,0.9,15.7,100,0,0.05,14,�k��,2.1,3,,
2016/7/10,7:00:00,14,�k��,0.3,16.4,97.7,0,0.25,2,�k��,1.9,0,,
2016/7/10,8:00:00,5,���쓌,1.2,18.5,95.7,0,0.38,5,���쓌,2.5,41,,
2016/7/10,9:00:00,5,���쓌,1,20.3,86.2,0,0.63,8,��,2.5,37,,
2016/7/10,10:00:00,6,�쓌,3.2,19.3,85.2,0,0.9,6,�쓌,4.5,51,,
2016/7/10,11:00:00,6,�쓌,2.5,19.7,81.1,0,1,5,���쓌,4.7,52,,
2016/7/10,12:00:00,6,�쓌,3.1,19.6,81,0,1.03,5,���쓌,4.6,59,,
2016/7/10,13:00:00,7,��쓌,2.5,20.5,79,0,1.06,6,�쓌,4.6,48,,
2016/7/10,14:00:00,5,���쓌,1.4,21.6,76.4,0,0.96,6,�쓌,4.1,1,,
2016/7/10,15:00:00,3,���k��,2.8,21.5,79,0,0.59,2,�k��,4.7,45,,
2016/7/10,16:00:00,16,�k,1.4,19.8,93.3,2.5,0.3,15,�k�k��,7.9,45,,
2016/7/10,17:00:00,2,�k��,1.5,21.2,87.4,0,0.25,1,�k�k��,4.9,34,,
2016/7/10,18:00:00,8,��,0.8,19.9,94.8,0,0.08,10,�쐼,2.1,32,,
2016/7/10,19:00:00,5,���쓌,1.6,18.8,97.3,0.5,0.02,5,���쓌,3.7,57,,
2016/7/10,20:00:00,9,��쐼,1,17.3,98,0,0,5,���쓌,4.7,0,,
2016/7/10,21:00:00,10,�쐼,1.4,17.1,98.9,0,0,10,�쐼,2.4,54,,
2016/7/10,22:00:00,16,�É�,0.2,16.8,99,0,0,10,�쐼,2.3,8,,
2016/7/10,23:00:00,11,���쐼,1,17.1,99,0,0,11,���쐼,1.4,55,,
2016/7/10,0:00:00,12,��,1,17.4,98.4,0,0,13,���k��,1.9,26,,
2016/7/11,1:00:00,16,�É�,0.2,17.4,98.9,0,0,12,��,1.4,16,,
2016/7/11,2:00:00,7,��쓌,1.1,17.4,99.3,0,0,7,��쓌,1.6,58,,
2016/7/11,3:00:00,9,��쐼,0.6,17.1,99.6,1.5,0,5,���쓌,1.9,10,,
2016/7/11,4:00:00,4,��,1.3,17.1,99.4,0.5,0,3,���k��,2.1,48,,
2016/7/11,5:00:00,2,�k��,2,16.8,98.6,0,0,2,�k��,3.1,58,,
2016/7/11,6:00:00,2,�k��,1.7,16.8,99.6,0.5,0.02,1,�k�k��,2.8,52,,
2016/7/11,7:00:00,13,���k��,0.4,17.2,98.9,0.5,0.07,1,�k�k��,2.4,1,,
2016/7/11,8:00:00,13,���k��,1.9,18.2,91,0,0.19,12,��,3.5,59,,
2016/7/11,9:00:00,15,�k�k��,3.2,19.7,81.9,0,0.58,15,�k�k��,5.9,27,,
2016/7/11,10:00:00,15,�k�k��,2.5,21,76.3,0,0.63,14,�k��,5.6,55,,
2016/7/11,11:00:00,16,�k,2.1,22.2,71.6,0,0.63,1,�k�k��,5.9,47,,
2016/7/11,12:00:00,1,�k�k��,1.5,22.3,72.3,0,0.55,2,�k��,5.2,16,,
2016/7/11,13:00:00,8,��,3.6,19,86.9,0,0.31,8,��,5.3,57,,
2016/7/11,14:00:00,7,��쓌,2.6,19.4,85.1,0,0.53,7,��쓌,4.8,8,,
2016/7/11,15:00:00,7,��쓌,1.8,21.2,84.7,0,0.62,7,��쓌,4.3,25,,
2016/7/11,16:00:00,7,��쓌,1.8,20.1,82.5,0,0.44,6,�쓌,3.3,44,,
2016/7/11,17:00:00,6,�쓌,1,18.8,90,0,0.22,7,��쓌,2.7,15,,
2016/7/11,18:00:00,16,�É�,0.2,18.7,88.8,0,0.08,5,���쓌,1.6,14,,
2016/7/11,19:00:00,9,��쐼,1,18.3,91,0,0.02,9,��쐼,1.7,59,,
2016/7/11,20:00:00,13,���k��,0.3,18.3,93.1,0,0,12,��,2.1,29,,
2016/7/11,21:00:00,14,�k��,1.1,18.4,90.8,0,0,13,���k��,2.4,43,,
2016/7/11,22:00:00,12,��,1.2,18,94.8,0,0,13,���k��,1.9,44,,
2016/7/11,23:00:00,16,�É�,0.2,17.7,94.9,0,0,16,�k,1.2,31,,
2016/7/11,0:00:00,12,��,0.6,15.8,98.6,0,0,13,���k��,1.2,35,,
2016/7/12,1:00:00,7,��쓌,0.5,16.5,98.3,0,0,12,��,1.9,21,,
2016/7/12,2:00:00,16,�É�,0,16.2,98,0,0,11,���쐼,1.3,27,,
2016/7/12,3:00:00,16,�É�,0.1,15.9,98.3,0,0,1,�k�k��,2,23,,
2016/7/12,4:00:00,12,��,2.1,14.7,99.5,0,0,12,��,3,51,,
2016/7/12,5:00:00,15,�k�k��,0.3,16.1,95.1,0,0.07,15,�k�k��,2.5,36,,
2016/7/12,6:00:00,13,���k��,2,17.1,87.4,0,0.22,14,�k��,3.1,59,,
2016/7/12,7:00:00,14,�k��,2.2,19.3,78.4,0,0.41,14,�k��,3.6,6,,
2016/7/12,8:00:00,16,�k,1.8,20.6,72.5,0,0.6,15,�k�k��,4.2,51,,
2016/7/12,9:00:00,15,�k�k��,2.2,20.5,78.4,0,0.6,4,��,4.6,58,,
2016/7/12,10:00:00,6,�쓌,2.2,21.9,72.8,0,0.83,5,���쓌,4.5,2,,
2016/7/12,11:00:00,7,��쓌,4.2,19.2,75.2,0,0.95,8,��,6.3,59,,
2016/7/12,12:00:00,7,��쓌,3.8,20.6,75.3,0,1.04,8,��,7,23,,
2016/7/12,13:00:00,8,��,3.6,20.8,71,0,1.01,7,��쓌,6.1,25,,
2016/7/12,14:00:00,8,��,3.4,21,75.3,0,0.91,7,��쓌,6.8,39,,
2016/7/12,15:00:00,8,��,3.9,20.5,77.5,0,0.77,8,��,7.1,3,,
2016/7/12,16:00:00,8,��,3,20.9,79,0,0.6,7,��쓌,5.6,34,,
2016/7/12,17:00:00,8,��,2.2,20.5,78.2,0,0.42,7,��쓌,5,3,,
2016/7/12,18:00:00,6,�쓌,1.6,19.2,90.7,0,0.22,9,��쐼,3.3,10,,
2016/7/12,19:00:00,4,��,1.8,16.7,95.5,0,0.05,5,���쓌,2.5,36,,
2016/7/12,20:00:00,3,���k��,0.9,15.9,97.9,0,0,4,��,2.3,15,,
2016/7/12,21:00:00,16,�É�,0.1,16,99.2,0,0,11,���쐼,1.2,26,,
2016/7/12,22:00:00,2,�k��,0.3,16.6,98,0,0,1,�k�k��,1.4,35,,
2016/7/12,23:00:00,3,���k��,2.3,16.6,97.6,0,0,3,���k��,3.3,59,,
2016/7/12,0:00:00,2,�k��,1.8,16.5,98,0,0,2,�k��,3.3,14,,
2016/7/13,1:00:00,2,�k��,1.7,16.4,97.7,0,0,3,���k��,3.4,37,,
2016/7/13,2:00:00,3,���k��,1.7,16.7,97.7,0,0,3,���k��,3.2,30,,
2016/7/13,3:00:00,2,�k��,1.1,16.2,98.3,0,0,3,���k��,3.4,19,,
2016/7/13,4:00:00,3,���k��,1.2,16.1,98.7,0,0,3,���k��,1.7,54,,
2016/7/13,5:00:00,2,�k��,1.4,15.9,98.7,0,0.01,4,��,3.4,19,,
2016/7/13,6:00:00,3,���k��,3.6,15.7,98.2,0,0.06,4,��,5.7,39,,
2016/7/13,7:00:00,3,���k��,2.7,16,98.5,0,0.11,3,���k��,5.2,1,,
2016/7/13,8:00:00,3,���k��,1.7,16.4,97.6,0,0.15,3,���k��,4.5,8,,
2016/7/13,9:00:00,4,��,3.7,17.1,94.5,0,0.2,3,���k��,5.5,55,,
2016/7/13,10:00:00,3,���k��,3.8,16,95.5,0,0.21,4,��,5.9,48,,
2016/7/13,11:00:00,3,���k��,3.6,16.1,95.8,0,0.21,4,��,5.4,37,,
2016/7/13,12:00:00,3,���k��,2.5,17.2,90.1,0,0.4,4,��,5.5,22,,
2016/7/13,13:00:00,4,��,4,17.1,91.6,0,0.4,5,���쓌,5.8,54,,
2016/7/13,14:00:00,6,�쓌,3,16.9,92.1,0,0.31,4,��,5.5,0,,
2016/7/13,15:00:00,6,�쓌,2.6,16.9,90.6,0,0.31,6,�쓌,5.3,59,,
2016/7/13,16:00:00,7,��쓌,2.3,16.7,92.8,0,0.23,6,�쓌,4.4,18,,
2016/7/13,17:00:00,6,�쓌,2.4,16.2,93.9,0,0.11,5,���쓌,4,52,,
2016/7/13,18:00:00,6,�쓌,1.5,16,94.7,0,0.04,5,���쓌,3.9,34,,
2016/7/13,19:00:00,6,�쓌,2,15.8,94.4,0,0.02,6,�쓌,3.6,8,,
2016/7/13,20:00:00,5,���쓌,2.1,15.8,94.3,0,0,6,�쓌,3.7,49,,
2016/7/13,21:00:00,5,���쓌,2.4,15.7,94.2,0,0,5,���쓌,3.7,45,,
2016/7/13,22:00:00,5,���쓌,0.9,15.4,96.8,0,0,6,�쓌,3.5,5,,
2016/7/13,23:00:00,4,��,1.8,15.2,98.5,0,0,4,��,2.7,58,,
2016/7/13,0:00:00,4,��,2.8,14.8,98.6,0,0,4,��,4.3,55,,
2016/7/14,1:00:00,3,���k��,2.4,14.6,99.1,0,0,3,���k��,5.1,2,,
2016/7/14,2:00:00,3,���k��,2.5,14.3,99.3,0,0,3,���k��,5.4,41,,
2016/7/14,3:00:00,2,�k��,2.1,14,99.6,0,0,3,���k��,4.9,3,,
2016/7/14,4:00:00,3,���k��,2.7,13.8,99.8,0,0,3,���k��,4.7,0,,
2016/7/14,5:00:00,3,���k��,3,13.9,99.9,0,0.01,3,���k��,5,2,,
2016/7/14,6:00:00,3,���k��,3.6,13.9,99.7,0,0.03,2,�k��,5.4,58,,
2016/7/14,7:00:00,3,���k��,3,14.1,99.8,0,0.06,3,���k��,5.3,4,,
2016/7/14,8:00:00,3,���k��,4,14.1,99.8,0.5,0.11,3,���k��,6.2,40,,
2016/7/14,9:00:00,3,���k��,3.7,14.4,99.6,0,0.18,3,���k��,6.8,31,,
2016/7/14,10:00:00,3,���k��,4.6,14.1,98.2,0,0.22,3,���k��,6.8,56,,
2016/7/14,11:00:00,3,���k��,2.7,14.1,99,0,0.17,2,�k��,6.9,24,,
2016/7/14,12:00:00,3,���k��,3.5,14.7,98.4,0,0.22,3,���k��,6.5,17,,
2016/7/14,13:00:00,3,���k��,2.6,16,91.9,0,0.37,3,���k��,5.2,17,,
2016/7/14,14:00:00,4,��,3.2,16.2,88.5,0,0.34,4,��,4.7,42,,
2016/7/14,15:00:00,2,�k��,2.6,16.3,91.6,0,0.31,4,��,5,15,,
2016/7/14,16:00:00,3,���k��,3,15.7,93,0,0.22,4,��,5.4,19,,
2016/7/14,17:00:00,3,���k��,2.3,15.1,97.1,0,0.07,3,���k��,5.1,2,,
2016/7/14,18:00:00,2,�k��,1.6,15,98.1,0,0.04,3,���k��,4,8,,
2016/7/14,19:00:00,2,�k��,1.9,14.8,98.2,0,0.01,4,��,3.2,17,,
2016/7/14,20:00:00,2,�k��,1.4,14.9,99.2,0,0,3,���k��,2.8,0,,
2016/7/14,21:00:00,2,�k��,0.8,14.6,99.3,0,0,2,�k��,2.9,8,,
2016/7/14,22:00:00,14.4,�k��,99.4,3.5,0,,,,,,,,
2016/7/14,23:00:00,14,�k��,0.5,14.3,99.4,0,0,1,�k�k��,1.4,11,,
2016/7/14,0:00:00,15,�k�k��,0.8,14.3,99.6,0,0,14,�k��,1.8,38,,
2016/7/15,1:00:00,14,�k��,0.9,14.5,99.4,0,0,14,�k��,1.6,59,,
2016/7/15,2:00:00,14,�k��,1.6,14.6,99,0,0,14,�k��,2.5,36,,
2016/7/15,3:00:00,13,���k��,1.4,14.8,98.1,0,0,13,���k��,3.2,24,,
2016/7/15,4:00:00,1,�k�k��,1.2,14.8,97.7,0,0,14,�k��,2.5,16,,
2016/7/15,5:00:00,16,�k,0.6,15.1,97.3,0,0.01,1,�k�k��,2,9,,
2016/7/15,6:00:00,14,�k��,0.6,15.5,96.5,0,0.05,15,�k�k��,2.5,19,,
2016/7/15,7:00:00,14,�k��,0.5,16,95.2,0,0.07,14,�k��,2.7,29,,
2016/7/15,8:00:00,2,�k��,2.7,16.9,91.9,0,0.14,1,�k�k��,4,52,,
2016/7/15,9:00:00,16,�k,1.6,17.6,89,0,0.26,1,�k�k��,3.6,28,,
2016/7/15,10:00:00,1,�k�k��,2,20,80,0,0.65,1,�k�k��,4.8,30,,
2016/7/15,11:00:00,4,��,4.4,18.3,82.7,0,0.5,5,���쓌,6.3,58,,
2016/7/15,12:00:00,4,��,2.9,19.4,82.4,0,0.53,5,���쓌,5.8,0,,
2016/7/15,13:00:00,5,���쓌,4.1,19.7,81.7,0,0.49,5,���쓌,5.6,57,,
2016/7/15,14:00:00,4,��,3.2,19.7,81.3,0,0.5,5,���쓌,5.5,6,,
2016/7/15,15:00:00,5,���쓌,1.9,20.7,75.6,0,0.42,5,���쓌,4.1,4,,
2016/7/15,16:00:00,5,���쓌,1.5,21.3,71.8,0,0.41,5,���쓌,2.8,5,,
2016/7/15,17:00:00,3,���k��,0.9,21.1,74.8,0,0.34,5,���쓌,2.7,16,,
2016/7/15,18:00:00,8,��,0.5,19,84,0,0.21,6,�쓌,2.4,4,,
2016/7/15,19:00:00,12,��,0.4,16.6,93.3,0,0.02,5,���쓌,1.6,57,,
2016/7/15,20:00:00,11,���쐼,0.6,15.6,96.4,0,0,12,��,1.2,59,,
2016/7/15,21:00:00,7,��쓌,0.9,15.1,98.2,0,0,13,���k��,2.5,18,,
2016/7/15,22:00:00,16,�É�,0,13.5,99.1,0,0,1,�k�k��,2,16,,
2016/7/15,23:00:00,13,���k��,0.8,13,100,0,0,13,���k��,1.6,50,,
2016/7/15,0:00:00,12,��,1.2,13.8,100,0,0,12,��,1.7,53,,
2016/7/16,1:00:00,11,���쐼,0.6,14.2,100,0,0,11,���쐼,1,54,,
2016/7/16,2:00:00,12,��,0.3,14.3,99.8,0,0,16,�k,2.5,31,,
2016/7/16,3:00:00,12,��,0.8,13.6,99.8,0,0,12,��,1.8,20,,
2016/7/16,4:00:00,16,�k,0.8,12.8,99.9,0,0,12,��,2.8,21,,
2016/7/16,5:00:00,12,��,1.1,13.9,100,0,0.04,12,��,2.5,33,,
2016/7/16,6:00:00,4,��,0.8,16.1,97.9,0,0.14,12,��,1.5,3,,
2016/7/16,7:00:00,6,�쓌,0.9,16.3,97,0,0.15,5,���쓌,2.9,22,,
2016/7/16,8:00:00,5,���쓌,2,17.1,95.3,0,0.28,4,��,3.2,46,,
2016/7/16,9:00:00,6,�쓌,2.2,17.1,92.3,0,0.4,6,�쓌,4.2,32,,
2016/7/16,10:00:00,7,��쓌,2.5,16.4,92,0,0.4,6,�쓌,3.8,53,,
2016/7/16,11:00:00,7,��쓌,2.2,17.5,85.9,0,0.48,6,�쓌,4.1,31,,
2016/7/16,12:00:00,7,��쓌,2.7,18.3,84.3,0,0.92,8,��,4.9,51,,
2016/7/16,13:00:00,7,��쓌,2.7,18.8,81.7,0,0.88,7,��쓌,5.1,57,,
2016/7/16,14:00:00,7,��쓌,3.1,16.8,90.3,0,0.66,8,��,5.9,32,,
2016/7/16,15:00:00,7,��쓌,2.6,16.7,94.2,0,0.33,6,�쓌,6.1,8,,
2016/7/16,16:00:00,7,��쓌,2,16.5,96,0,0.19,6,�쓌,4.7,32,,
2016/7/16,17:00:00,7,��쓌,2.4,16.3,95.8,0,0.1,6,�쓌,4.5,5,,
2016/7/16,18:00:00,8,��,1.9,16.2,95.9,0,0.05,9,��쐼,3.5,59,,
2016/7/16,19:00:00,8,��,1.4,15.9,97.7,0,0.01,6,�쓌,3.5,34,,
2016/7/16,20:00:00,7,��쓌,1.5,15.8,98.7,0,0,6,�쓌,3.6,38,,
2016/7/16,21:00:00,6,�쓌,1.1,15.8,98.9,0,0,6,�쓌,2.7,14,,
2016/7/16,22:00:00,6,�쓌,0.5,15.8,99.5,0,0,5,���쓌,1.8,15,,
2016/7/16,23:00:00,5,���쓌,0.7,15.7,99.9,0,0,10,�쐼,1.7,21,,
2016/7/16,0:00:00,4,��,2,15.8,100,0,0,4,��,3.2,52,,
2016/7/17,1:00:00,2,�k��,0.9,15.9,100,0,0,4,��,2.6,2,,
2016/7/17,2:00:00,16,�k,1.4,15.8,100,0,0,3,���k��,2.5,27,,
2016/7/17,3:00:00,13,���k��,0.8,15.9,100,0,0,13,���k��,2.7,28,,
2016/7/17,4:00:00,8,��,1,15.8,100,0,0,10,�쐼,2.4,37,,
2016/7/17,5:00:00,6,�쓌,0.4,15.9,100,0,0.01,8,��,1.7,47,,
2016/7/17,6:00:00,9,��쐼,0.6,16.3,100,0,0.07,5,���쓌,1.6,12,,
2016/7/17,7:00:00,8,��,2.1,16.1,100,0,0.09,8,��,3.3,51,,
2016/7/17,8:00:00,8,��,2,16.2,100,0,0.11,7,��쓌,3.9,41,,
2016/7/17,9:00:00,8,��,1.8,16.8,99.7,0,0.17,8,��,4.4,6,,